Location: Zagreb
(45.8000°N, 16.0000°E)
Time: 22:37:14
(UTC+01:00)

Tiros 1 despin weight - Pass Details

Date: 26 January 2020
Orbit: 594 x 642 km, 48.2° (Epoch: 24 February)

Event Time Altitude Azimuth Distance (km) Brightness Sun altitude
Rises 17:42:15 0° 282° (WNW) 2,922 ? -8.9°
Reaches altitude 10° 17:45:28 10° 258° (WSW) 2,018 ? -9.4°
Maximum altitude 17:48:01 15° 225° (SW) 1,729 ? -9.9°
Drops below altitude 10° 17:50:35 10° 191° (SSW) 2,021 ? -10.3°
Sets 17:53:50 0° 168° (SSE) 2,928 ? -10.8°
